Wind_Speed
9 8 7 7 7 7 6 6 5 4 4 4 4 5 4 4 5 5 4 4 4 3 3 3 2 1 1 1 1 1 1 2 2 3 4 4 4 5 5 5 5 5 5 5 5 5 5 5 5
10 9 9 8 8 7 7 7 6 6 5 5 5 5 5 5 4 5 5 4 4 3 3 2 2 1 1 1 1 1 1 2 2 3 4 5 5 5 6 6 6 6 6 6 6 6 6 6 5
11 10 10 9 8 8 8 7 7 7 7 6 6 6 6 6 5 5 5 5 4 3 3 3 2 1 1 1 1 1 2 1 2 3 4 5 5 6 6 6 6 6 6 6 7 6 6 6 6
11 11 10 10 9 8 8 7 7 7 8 8 7 6 6 6 5 5 5 5 4 4 3 3 2 2 1 1 1 2 2 2 2 4 5 5 5 6 6 7 7 7 6 6 7 7 6 6 6
11 12 11 10 10 9 9 9 9 9 8 8 7 7 6 6 6 6 5 5 5 4 4 4 3 2 1 0 1 2 2 2 3 4 4 5 6 7 7 7 7 7 6 7 7 7 7 6 6
11 12 11 11 10 10 9 9 10 9 8 8 8 8 7 7 7 7 6 6 6 5 5 5 4 3 2 1 2 2 2 2 3 4 5 5 6 7 7 7 7 6 7 7 7 7 7 6 6
11 11 11 11 10 10 11 10 10 10 9 9 8 8 7 7 8 8 7 7 7 6 6 6 5 4 3 2 1 1 1 2 3 4 5 6 6 7 7 7 7 7 7 7 7 7 6 6 6
11 11 11 11 11 11 11 10 9 9 9 9 9 9 9 8 8 8 7 8 7 6 6 6 5 4 2 2 2 1 2 2 3 4 5 5 6 6 6 7 7 7 7 7 7 6 6 6 6
11 11 11 10 11 11 11 10 9 9 10 10 10 10 10 9 9 8 8 7 7 7 7 7 5 4 2 2 2 2 2 2 3 3 4 5 6 6 6 6 7 7 7 6 6 6 6 7 7
10 10 10 11 10 10 11 11 9 10 11 10 10 11 11 10 9 9 8 7 6 7 7 7 6 4 3 2 2 2 1 2 2 3 4 5 5 6 6 7 7 7 7 6 6 6 7 7 8
9 9 10 9 9 9 11 11 10 11 10 11 11 11 11 10 9 9 8 7 7 8 8 7 6 5 4 3 2 2 1 2 2 3 4 5 5 5 6 7 7 7 7 6 6 6 7 7 7
8 9 10 10 10 10 10 10 10 10 10 10 11 11 11 11 10 9 8 8 8 8 8 8 7 5 5 4 3 2 1 2 3 3 4 4 4 5 6 6 7 7 7 6 7 7 7 7 7
8 8 9 9 10 10 10 10 10 10 10 10 11 11 11 11 10 10 9 8 8 8 8 8 7 6 6 4 3 2 1 2 3 3 3 4 4 5 5 6 6 7 7 7 6 6 7 7 7
7 8 8 9 9 10 10 10 10 10 10 10 11 11 11 10 11 10 10 9 8 8 8 8 8 7 6 5 4 2 2 2 3 3 4 4 4 5 5 6 7 7 7 7 7 6 6 6 6
7 7 8 9 10 10 10 11 11 11 11 11 11 11 11 11 11 10 10 9 8 8 7 8 7 7 6 5 4 3 2 2 3 3 3 3 4 5 5 6 7 7 7 7 6 6 6 6 5
7 8 8 9 9 9 10 10 11 11 12 12 11 12 11 11 11 10 10 9 8 8 7 7 7 6 6 5 4 3 2 2 2 2 3 3 4 4 5 6 7 7 7 7 7 7 6 6 5
7 8 9 9 9 8 9 10 11 11 12 12 12 12 11 11 11 10 9 9 8 7 7 6 6 6 6 5 4 3 2 2 1 2 2 3 3 4 5 5 7 7 7 7 7 7 7 6 6
7 7 8 8 9 9 9 10 11 11 12 13 13 13 12 11 11 10 9 9 8 8 7 6 6 6 6 5 4 3 2 2 2 1 2 2 3 4 4 5 6 7 7 7 7 7 7 7 6
7 7 7 8 9 9 10 10 11 11 13 13 13 13 13 12 11 10 10 9 8 8 7 7 6 6 6 5 5 4 3 2 2 1 2 3 3 3 4 5 6 7 7 8 8 8 7 7 7
6 6 7 7 9 9 9 10 10 11 12 12 13 13 13 12 11 10 10 10 9 8 7 6 6 6 6 6 5 5 4 3 2 2 2 2 3 3 4 5 5 6 7 7 7 8 7 7 7
6 6 7 8 9 10 9 10 11 11 11 12 12 13 13 12 12 11 11 10 9 8 7 6 6 5 5 5 5 5 4 3 3 2 2 2 3 3 4 4 5 6 7 7 7 7 7 7 7
6 7 7 8 9 10 10 10 11 11 12 12 12 12 12 13 12 11 11 10 9 8 7 7 6 5 5 5 5 5 4 4 3 2 2 3 3 3 3 4 5 6 6 7 7 7 7 7 7
6 7 7 8 9 9 10 10 10 10 11 12 12 13 12 12 12 11 11 10 9 8 8 7 6 6 6 5 5 5 4 4 3 3 3 3 3 4 4 5 5 6 6 7 7 6 7 7 7
5 6 8 8 8 8 9 9 10 10 11 12 12 13 13 13 12 11 11 10 10 9 8 7 7 7 6 6 5 5 5 5 4 4 3 3 4 4 4 5 6 6 6 7 7 7 6 7 7
6 6 7 7 8 8 9 9 10 10 12 13 12 12 13 13 13 12 11 11 10 9 8 8 7 7 7 7 6 6 6 5 5 4 4 4 4 4 4 5 5 6 6 7 7 7 7 7 8
6 7 7 8 8 8 9 9 9 10 11 12 13 13 13 12 13 13 12 12 11 10 9 8 7 7 7 7 7 7 6 6 5 5 4 4 4 5 4 5 5 6 6 7 7 7 8 8 8
6 7 7 8 8 8 8 9 9 10 11 11 12 12 13 13 13 13 13 12 11 11 9 9 8 8 8 8 8 8 7 7 7 6 5 5 6 6 5 5 5 6 6 7 8 8 9 9 9
7 6 7 7 8 8 7 8 9 9 9 10 12 12 12 13 14 14 13 12 12 11 10 10 9 9 9 8 8 8 8 8 8 7 7 6 7 7 6 6 6 7 7 7 8 9 9 10 11
7 7 7 7 7 7 7 7 8 8 9 10 11 12 12 12 14 14 14 13 12 12 11 10 9 9 10 10 9 10 9 9 9 8 8 7 7 7 7 7 7 7 8 8 9 10 11 11 12
8 8 8 8 8 8 7 5 7 8 9 11 11 12 13 14 14 15 15 14 13 12 12 11 11 11 11 11 10 10 10 10 10 9 9 9 9 9 9 9 8 9 9 10 11 12 13 13 14
Wind_Direction
246 247 240 232 230 225 221 217 215 217 204 201 195 185 174 170 171 173 173 161 147 144 147 149 142 109 58 104 89 67 40 37 20 13 5 357 351 342 340 338 333 330 326 325 322 321 319 311 297
244 243 238 234 233 222 219 218 220 221 214 204 196 192 190 180 173 176 178 171 156 154 159 163 162 143 98 104 89 41 19 23 7 358 355 349 342 335 336 337 330 327 323 322 318 316 315 309 301
242 240 238 238 238 227 225 225 225 222 220 213 206 198 194 194 190 186 181 178 176 176 176 167 165 163 118 61 30 24 18 17 2 354 352 347 343 339 336 335 331 328 322 317 316 312 312 306 299
240 239 237 237 236 232 232 231 226 221 219 216 209 203 199 200 197 192 190 189 190 187 183 182 186 168 145 90 32 19 18 20 5 355 354 347 340 337 335 334 332 326 322 315 313 312 308 303 297
239 237 236 235 234 233 234 231 225 220 220 215 213 208 207 209 204 198 200 196 188 189 191 187 184 181 197 224 0 343 2 12 355 349 346 337 330 331 332 331 326 322 320 316 313 310 304 301 294
240 237 235 234 234 234 232 231 230 228 223 216 213 210 209 205 203 197 199 190 194 202 199 193 192 197 213 244 319 334 339 351 346 349 347 341 337 333 332 330 327 321 319 318 315 312 306 301 294
239 236 235 234 234 233 234 230 226 223 221 218 218 209 205 197 199 195 199 196 197 200 201 195 197 203 220 248 278 313 320 329 335 341 342 342 339 335 329 331 331 325 320 319 316 311 306 300 296
235 232 232 233 233 231 232 227 225 227 223 218 212 205 202 196 199 199 202 198 199 202 203 198 197 200 216 237 262 278 306 319 328 336 339 340 336 335 334 336 335 330 322 318 315 309 305 301 296
233 232 230 231 230 229 232 229 222 224 218 210 207 206 205 205 201 199 202 201 206 207 203 196 198 204 211 220 247 274 303 326 332 345 346 340 334 337 340 341 340 335 329 323 317 310 303 299 296
233 233 230 227 226 225 227 229 221 215 211 208 208 208 204 204 203 202 204 208 207 203 205 204 207 208 210 224 247 274 309 331 337 343 339 337 337 338 339 341 339 336 334 329 321 312 306 301 298
231 229 228 228 229 226 227 225 217 207 207 209 204 199 197 197 198 202 206 206 209 203 202 205 205 208 212 224 239 254 292 330 339 339 334 335 340 343 341 344 341 336 337 332 324 316 310 306 304
227 227 226 228 226 223 222 218 216 210 207 206 204 202 197 197 198 202 203 202 203 201 204 208 211 214 216 222 232 243 319 358 355 344 335 343 344 346 343 343 343 345 345 336 330 324 321 314 308
219 222 220 220 222 221 221 214 212 206 208 207 200 196 197 201 200 199 201 197 198 204 211 211 214 219 222 224 233 256 306 337 342 343 344 348 351 351 348 348 350 348 347 340 333 329 326 320 312
223 224 221 216 215 214 214 212 211 205 207 204 196 195 194 197 197 197 200 202 203 204 209 212 217 220 226 228 232 252 292 314 323 335 345 353 359 356 353 358 356 349 344 342 337 333 332 328 324
222 220 218 214 215 212 213 211 206 199 199 198 194 192 193 195 197 197 198 200 203 205 208 210 214 217 224 225 229 243 269 295 320 336 349 355 356 354 358 1 356 351 349 345 343 343 341 337 330
223 221 220 216 215 211 206 205 203 200 195 195 194 191 194 197 197 196 198 202 204 206 208 210 209 213 217 220 222 236 262 285 315 337 345 348 351 355 360 2 359 357 358 356 353 351 349 343 338
225 221 220 216 208 205 200 199 198 194 193 196 193 192 196 197 196 195 199 201 200 205 209 207 209 212 216 216 213 230 250 272 290 319 340 348 352 357 360 1 2 5 5 4 2 360 357 352 348
219 213 214 212 202 195 196 196 194 195 196 195 193 193 195 193 195 195 198 199 200 205 211 210 210 211 214 214 210 219 233 257 275 300 330 341 350 359 1 360 3 4 3 4 3 4 1 359 358
212 211 213 212 206 200 194 193 189 194 194 193 190 191 191 193 198 200 200 199 203 209 212 210 207 207 214 216 215 223 234 255 267 288 313 327 342 354 358 360 2 0 3 3 1 0 359 359 360
207 213 217 214 213 213 208 198 191 193 191 192 193 194 194 194 196 199 200 202 208 210 209 210 209 210 217 222 225 233 234 248 265 286 306 323 335 346 353 354 355 356 360 1 3 3 2 1 1
209 216 218 220 222 226 222 206 201 197 194 195 195 196 195 197 199 203 203 205 208 212 208 208 212 218 221 228 232 236 239 247 262 280 297 316 326 333 344 349 351 357 2 2 3 3 5 4 2
215 219 219 224 227 224 216 205 201 197 199 198 197 198 202 198 199 203 204 203 205 209 212 211 218 222 223 224 225 230 238 244 257 272 285 303 313 320 331 342 347 354 359 0 2 1 359 0 360
224 222 222 225 226 221 214 211 207 202 202 199 199 202 201 198 199 201 203 203 206 213 218 220 222 223 222 223 226 231 239 236 248 265 276 296 305 312 323 333 338 346 352 356 358 357 354 354 356
220 217 214 216 222 220 215 216 211 207 202 202 202 204 203 204 206 206 209 210 212 216 220 223 225 226 224 225 229 233 237 239 253 264 272 289 303 313 321 328 333 340 346 352 355 353 351 349 347
220 217 215 215 219 218 215 215 214 217 213 209 207 209 208 210 211 211 213 214 215 218 221 222 225 228 229 230 233 235 238 244 254 261 267 281 297 309 316 326 330 335 340 345 349 349 347 343 340
218 221 222 224 222 216 217 217 216 221 221 217 214 215 217 217 217 217 217 219 220 220 223 223 228 232 235 234 237 236 237 241 248 254 264 277 293 302 306 314 319 327 333 336 340 342 340 337 335
225 228 232 234 228 225 223 226 223 221 220 221 220 221 222 222 222 219 219 221 223 226 229 229 234 237 236 234 234 238 239 239 247 254 262 273 288 293 298 302 306 315 323 329 331 333 335 335 334
227 234 237 240 237 230 224 225 226 223 224 223 220 223 223 223 222 220 221 223 224 228 233 234 237 240 239 238 238 240 239 248 255 260 266 273 285 286 291 295 298 306 316 324 328 328 330 330 331
240 244 247 245 241 239 234 223 224 227 224 226 225 226 227 225 223 223 225 224 226 231 235 235 239 241 241 240 240 242 247 255 260 263 266 273 280 282 284 288 293 301 308 313 318 321 322 323 323
245 248 249 247 242 242 241 225 226 227 226 228 229 232 232 229 225 226 229 229 232 235 236 236 240 241 242 242 241 241 247 255 258 261 267 272 274 278 281 285 291 297 302 307 311 314 315 316 317
Height
5862 5863 5864 5866 5868 5869 5869 5871 5872 5872 5873 5874 5875 5876 5877 5879 5881 5884 5882 5881 5882 5883 5883 5883 5884 5884 5884 5884 5884 5883 5883 5883 5883 5883 5883 5883 5883 5883 5883 5883 5883 5882 5882 5882 5882 5882 5882 5882 5882
5861 5862 5864 5866 5866 5867 5869 5870 5871 5872 5873 5873 5874 5876 5877 5878 5879 5880 5881 5881 5882 5883 5883 5884 5884 5884 5884 5884 5884 5884 5883 5883 5884 5883 5883 5883 5883 5883 5883 5882 5882 5882 5882 5882 5881 5881 5881 5881 5881
5859 5861 5863 5864 5865 5866 5867 5868 5869 5870 5871 5873 5874 5875 5876 5878 5879 5879 5880 5881 5882 5883 5883 5884 5884 5884 5884 5884 5884 5884 5884 5884 5884 5884 5883 5883 5883 5882 5882 5882 5881 5881 5881 5881 5880 5880 5880 5880 5880
5858 5860 5862 5863 5863 5865 5866 5867 5868 5869 5870 5872 5873 5875 5876 5877 5878 5879 5880 5881 5882 5883 5883 5884 5884 5884 5885 5885 5884 5884 5884 5884 5884 5884 5883 5883 5882 5882 5881 5881 5881 5880 5880 5880 5879 5879 5879 5879 5879
5856 5858 5860 5861 5862 5864 5865 5866 5867 5868 5869 5871 5872 5874 5875 5876 5877 5878 5879 5880 5882 5882 5883 5884 5884 5885 5885 5885 5885 5884 5884 5884 5884 5884 5883 5883 5882 5882 5881 5880 5880 5879 5879 5879 5878 5878 5878 5878 5878
5854 5856 5858 5859 5860 5862 5863 5864 5866 5867 5868 5870 5871 5872 5873 5875 5876 5878 5879 5880 5881 5882 5883 5883 5884 5884 5885 5885 5885 5884 5884 5884 5884 5883 5883 5882 5882 5881 5880 5880 5879 5879 5878 5878 5877 5877 5877 5876 5876
5853 5854 5855 5857 5859 5860 5862 5863 5864 5866 5867 5869 5870 5871 5872 5874 5875 5877 5878 5879 5880 5881 5882 5883 5884 5884 5884 5885 5885 5884 5884 5884 5884 5883 5883 5882 5882 5881 5880 5879 5878 5878 5877 5877 5876 5876 5875 5875 5875
5850 5853 5853 5855 5857 5859 5860 5861 5863 5864 5866 5867 5869 5870 5871 5873 5875 5876 5877 5879 5880 5881 5882 5882 5883 5884 5884 5884 5884 5884 5884 5884 5884 5883 5883 5882 5881 5881 5880 5879 5878 5877 5876 5876 5875 5875 5874 5874 5874
5848 5851 5852 5853 5855 5857 5858 5860 5862 5863 5864 5865 5867 5869 5871 5872 5874 5875 5877 5878 5879 5880 5881 5882 5883 5883 5884 5884 5884 5884 5884 5884 5883 5883 5882 5882 5881 5880 5879 5878 5877 5876 5875 5875 5874 5874 5873 5873 5873
5847 5848 5850 5852 5854 5855 5857 5858 5860 5861 5862 5864 5866 5867 5869 5871 5873 5875 5876 5877 5878 5879 5880 5881 5882 5883 5883 5884 5884 5883 5884 5883 5883 5883 5882 5881 5881 5880 5879 5878 5877 5876 5875 5874 5873 5873 5872 5871 5871
5845 5847 5848 5850 5851 5853 5855 5857 5858 5860 5861 5863 5865 5866 5868 5870 5872 5874 5875 5876 5877 5878 5879 5880 5881 5882 5883 5883 5883 5883 5883 5883 5883 5882 5882 5881 5880 5880 5879 5878 5877 5875 5874 5873 5872 5872 5871 5870 5870
5844 5845 5847 5848 5850 5851 5853 5855 5857 5859 5861 5862 5863 5865 5867 5869 5871 5873 5874 5875 5876 5877 5879 5880 5881 5882 5882 5883 5883 5883 5883 5883 5882 5882 5882 5881 5880 5879 5878 5877 5876 5875 5874 5873 5872 5871 5870 5869 5868
5842 5844 5845 5847 5848 5850 5852 5854 5856 5857 5859 5861 5862 5864 5866 5868 5870 5871 5873 5874 5875 5877 5878 5879 5880 5881 5882 5882 5883 5883 5883 5883 5882 5882 5881 5881 5880 5879 5878 5877 5876 5875 5873 5872 5871 5870 5869 5868 5867
5842 5843 5844 5846 5847 5849 5851 5852 5854 5856 5857 5859 5861 5863 5865 5867 5869 5871 5872 5873 5875 5876 5877 5878 5879 5880 5881 5882 5882 5883 5882 5882 5882 5882 5881 5880 5880 5879 5878 5877 5876 5874 5873 5871 5870 5869 5868 5867 5866
5840 5842 5844 5844 5846 5847 5849 5851 5853 5854 5856 5858 5860 5862 5864 5866 5868 5870 5871 5873 5874 5875 5876 5877 5878 5879 5880 5881 5882 5882 5882 5882 5882 5881 5881 5880 5880 5879 5878 5877 5876 5874 5872 5871 5870 5868 5867 5866 5865
5840 5841 5843 5844 5845 5846 5850 5850 5852 5853 5855 5857 5860 5862 5864 5865 5867 5869 5870 5872 5873 5874 5876 5877 5878 5879 5880 5880 5881 5881 5882 5881 5881 5881 5880 5880 5879 5879 5878 5877 5876 5874 5872 5871 5869 5868 5867 5865 5864
5839 5840 5842 5843 5844 5845 5848 5849 5850 5852 5854 5857 5859 5861 5863 5865 5866 5868 5870 5871 5873 5874 5875 5876 5877 5878 5879 5879 5880 5881 5881 5881 5881 5881 5880 5880 5879 5879 5878 5877 5875 5874 5872 5871 5869 5868 5866 5865 5864
5839 5840 5841 5842 5843 5845 5846 5848 5850 5851 5853 5856 5858 5860 5862 5864 5866 5868 5869 5871 5872 5873 5874 5875 5876 5877 5878 5879 5880 5880 5880 5881 5880 5880 5880 5879 5879 5878 5877 5876 5875 5874 5872 5871 5869 5867 5866 5865 5863
5838 5839 5840 5842 5842 5844 5846 5847 5849 5850 5852 5855 5857 5859 5861 5863 5865 5867 5869 5870 5871 5872 5873 5874 5875 5876 5877 5878 5879 5879 5880 5880 5880 5880 5879 5879 5879 5878 5877 5876 5875 5874 5872 5871 5869 5867 5866 5864 5863
5838 5839 5840 5841 5842 5844 5845 5847 5848 5850 5852 5854 5856 5858 5861 5863 5864 5866 5868 5869 5870 5871 5873 5874 5875 5876 5876 5877 5878 5879 5879 5879 5879 5879 5879 5878 5878 5878 5877 5876 5875 5873 5872 5870 5869 5867 5866 5864 5863
5837 5838 5839 5840 5841 5843 5845 5847 5848 5850 5851 5853 5855 5857 5860 5862 5864 5865 5867 5868 5869 5870 5872 5873 5874 5875 5875 5876 5877 5878 5878 5878 5878 5878 5878 5878 5878 5877 5876 5875 5874 5873 5872 5870 5868 5867 5866 5864 5863
5837 5838 5839 5840 5841 5842 5845 5846 5848 5849 5851 5853 5855 5857 5859 5861 5862 5864 5865 5867 5868 5870 5871 5872 5873 5874 5874 5875 5876 5877 5877 5877 5878 5878 5877 5877 5877 5876 5875 5875 5874 5873 5871 5870 5868 5867 5866 5864 5863
5836 5837 5838 5839 5840 5842 5844 5845 5848 5848 5850 5852 5854 5856 5857 5859 5861 5863 5864 5866 5867 5869 5870 5871 5871 5872 5873 5874 5875 5875 5876 5876 5877 5877 5877 5876 5876 5875 5875 5874 5873 5872 5871 5870 5868 5867 5865 5864 5863
5836 5837 5838 5839 5840 5842 5843 5845 5847 5848 5849 5851 5853 5855 5856 5858 5860 5862 5863 5865 5866 5868 5868 5869 5870 5871 5872 5873 5874 5874 5875 5875 5876 5876 5875 5875 5875 5874 5874 5873 5872 5871 5870 5869 5868 5866 5865 5864 5863
5836 5838 5839 5839 5840 5841 5842 5844 5846 5847 5848 5850 5852 5853 5855 5857 5858 5860 5862 5863 5865 5866 5867 5868 5869 5870 5871 5871 5872 5873 5873 5874 5874 5874 5874 5874 5874 5873 5873 5872 5871 5870 5869 5868 5867 5866 5865 5864 5862
5836 5837 5839 5839 5840 5840 5841 5843 5845 5845 5846 5848 5850 5852 5853 5855 5857 5859 5860 5862 5863 5864 5865 5866 5867 5868 5869 5870 5871 5871 5872 5872 5873 5873 5873 5872 5872 5872 5871 5871 5870 5869 5868 5867 5866 5865 5864 5863 5862
5836 5836 5838 5838 5839 5840 5841 5842 5843 5844 5845 5847 5848 5850 5852 5854 5855 5857 5858 5860 5861 5863 5864 5864 5865 5866 5867 5868 5869 5869 5870 5871 5871 5871 5871 5871 5870 5870 5870 5869 5869 5868 5867 5866 5865 5864 5863 5862 5861
5835 5836 5837 5837 5838 5839 5840 5841 5842 5843 5844 5845 5847 5848 5850 5852 5853 5855 5856 5858 5859 5861 5862 5862 5863 5864 5865 5866 5867 5867 5868 5868 5869 5869 5869 5869 5868 5868 5868 5867 5867 5866 5866 5865 5864 5863 5861 5860 5859
5834 5835 5835 5836 5837 5838 5839 5842 5841 5842 5843 5844 5845 5847 5848 5850 5851 5853 5854 5856 5857 5858 5859 5860 5861 5862 5863 5864 5864 5865 5866 5866 5866 5866 5866 5866 5866 5866 5866 5865 5865 5864 5864 5863 5862 5861 5860 5859 5857
5833 5833 5834 5835 5836 5836 5837 5842 5839 5840 5841 5842 5843 5845 5846 5847 5849 5850 5852 5853 5855 5856 5857 5858 5859 5860 5861 5861 5862 5862 5863 5863 5864 5864 5864 5864 5863 5863 5863 5863 5863 5862 5861 5861 5860 5859 5857 5856 5855